Point Lay, AK

7:31 PM AKST on February 23, 2017 (GMT -0900)
Point Lay

Weather History for PPIZ - June, 2014

Change the Weather History Date:

Thursday, June 5, 2014

  Actual Average Record
Temperature  
Mean Temperature 31 °F -  
Max Temperature 32 °F 40 °F 62 °F (2004)
Min Temperature 30 °F 31 °F 24 °F (2013)
Degree Days  
Heating Degree Days 34    
Moisture  
Dew Point 30 °F    
Average Humidity 98    
Maximum Humidity 100    
Minimum Humidity 93    
Precipitation  
Precipitation 0.00 in - - ()
Sea Level Pressure  
Sea Level Pressure 30.08 in    
Wind  
Wind Speed 10 mph (WSW)    
Max Wind Speed 14 mph    
Max Gust Speed -    
Visibility 2 miles    
Events Fog , Snow    
Averages and records for this station are not official NWS values.
T = Trace of Precipitation, MM = Missing Value Source: NWS Daily Summary

Daily Weather History Graph

Daily Weather History Graph

Search for Another Location

Airport or City:

Trip Planner

Search our weather history database for the weather conditions in past years. The results will help you decide how hot, cold, wet, or windy it might be!

Date:

Astronomy

Dec. 31, 1969 Rise Set
Actual Time Sun does not rise Sun does not rise
Civil Twilight Sun does not rise Sun does not rise
Nautical Twilight Sun does not rise Sun does not rise
Astronomical Twilight Sun does not rise Sun does not rise
Moon 2:33 PM AKDT (6/5) 3:23 AM AKDT (6/5)
Length of Visible Light 24h 00m
Length of Day
24h 00m
Waxing Crescent, 50% of the Moon is Illuminated
Jun 5
Waxing Crescent
Jun 5
First Quarter
Jun 12
Full
Jun 19
Last Quarter
Jun 27
New

Hourly Weather History & Observations

Time (AKDT) Temp. Windchill Dew Point Humidity Pressure Visibility Wind Dir Wind Speed Gust Speed Precip Events Conditions
12:31 AM 30.2 °F 20.8 °F 30.2 °F 100% 30.05 in 0.2 mi West 11.5 mph - N/A Fog Light Freezing Fog
12:56 AM 30.2 °F 20.8 °F 30.2 °F 100% 30.05 in 0.2 mi West 11.5 mph - N/A Fog Light Freezing Fog
1:08 AM 30.2 °F 19.8 °F 30.2 °F 100% 30.05 in 0.2 mi West 13.8 mph - N/A Fog Light Freezing Fog
1:19 AM 30.2 °F 19.8 °F 30.2 °F 100% 30.06 in 0.5 mi West 13.8 mph - N/A Fog Light Freezing Fog
1:35 AM 30.2 °F 20.2 °F 30.2 °F 100% 30.06 in 0.2 mi West 12.7 mph - N/A Fog Light Freezing Fog
1:45 AM 30.2 °F 19.8 °F 30.2 °F 100% 30.06 in 0.5 mi West 13.8 mph - N/A Fog Light Freezing Fog
1:56 AM 31.1 °F 21.9 °F 31.1 °F 100% 30.08 in 0.8 mi West 11.5 mph - N/A   Overcast
2:05 AM 30.2 °F 20.8 °F 30.2 °F 100% 30.07 in 0.5 mi WNW 11.5 mph - N/A Fog Light Freezing Fog
2:09 AM 30.2 °F 21.3 °F 30.2 °F 100% 30.07 in 1.0 mi West 10.4 mph - N/A   Overcast
2:12 AM 30.2 °F 20.8 °F 30.2 °F 100% 30.07 in 2.5 mi West 11.5 mph - N/A   Overcast
2:19 AM 30.2 °F 20.8 °F 30.2 °F 100% 30.07 in 8.0 mi West 11.5 mph - N/A   Overcast
2:27 AM 30.2 °F 20.8 °F 30.2 °F 100% 30.07 in 1.5 mi West 11.5 mph - N/A   Overcast
2:29 AM 30.2 °F 20.8 °F 30.2 °F 100% 30.07 in 0.8 mi West 11.5 mph - N/A   Overcast
2:34 AM 30.2 °F 20.2 °F 30.2 °F 100% 30.07 in 0.2 mi West 12.7 mph - N/A Fog Light Freezing Fog
2:45 AM 30.2 °F 21.3 °F 30.2 °F 100% 30.07 in 0.2 mi West 10.4 mph - N/A Fog Light Freezing Fog
2:56 AM 31.1 °F 21.9 °F 30.0 °F 96% 30.09 in 0.2 mi West 11.5 mph - N/A Fog Light Freezing Fog
3:56 AM 30.2 °F 20.8 °F 30.2 °F 100% 30.08 in 0.2 mi West 11.5 mph - N/A Fog Light Freezing Fog
4:14 AM 30.2 °F 21.9 °F 30.2 °F 100% 30.08 in 0.2 mi WSW 9.2 mph - N/A Fog Light Freezing Fog
4:24 AM 30.2 °F 21.9 °F 30.2 °F 100% 30.08 in 0.2 mi WSW 9.2 mph - N/A Fog Light Freezing Fog
4:56 AM 30.0 °F 21.1 °F 30.0 °F 100% 30.09 in - WSW 10.4 mph - N/A   Overcast
5:06 AM 30.2 °F 21.3 °F 30.2 °F 100% 30.08 in 1.5 mi WSW 10.4 mph - N/A   Overcast
5:08 AM 30.2 °F 21.3 °F 30.2 °F 100% 30.08 in 3.0 mi WSW 10.4 mph - N/A   Overcast
5:20 AM 30.2 °F 21.3 °F 30.2 °F 100% 30.08 in 1.8 mi WSW 10.4 mph - N/A   Overcast
5:22 AM 30.2 °F 21.3 °F 30.2 °F 100% 30.08 in 1.0 mi WSW 10.4 mph - N/A   Overcast
5:30 AM 30.2 °F 21.3 °F 30.2 °F 100% 30.09 in 1.5 mi WSW 10.4 mph - N/A   Overcast
5:32 AM 30.2 °F 21.3 °F 30.2 °F 100% 30.09 in 3.0 mi WSW 10.4 mph - N/A   Overcast
5:36 AM 30.2 °F 21.3 °F 30.2 °F 100% 30.09 in 1.2 mi WSW 10.4 mph - N/A   Overcast
5:38 AM 30.2 °F 21.3 °F 30.2 °F 100% 30.09 in 0.8 mi WSW 10.4 mph - N/A   Overcast
5:43 AM 30.2 °F 21.3 °F 30.2 °F 100% 30.09 in 0.2 mi WSW 10.4 mph - N/A Fog Light Freezing Fog
5:56 AM 31.1 °F 22.4 °F 30.0 °F 96% 30.10 in 0.2 mi WSW 10.4 mph - N/A Fog Light Freezing Fog
6:31 AM 30.2 °F 21.3 °F 30.2 °F 100% 30.09 in 0.8 mi WSW 10.4 mph - N/A   Overcast
6:39 AM 30.2 °F 22.6 °F 30.2 °F 100% 30.09 in 1.2 mi SW 8.1 mph - N/A   Overcast
6:48 AM 30.2 °F 21.3 °F 30.2 °F 100% 30.09 in 1.5 mi WSW 10.4 mph - N/A   Overcast
6:56 AM 30.2 °F 21.9 °F 30.2 °F 100% 30.09 in 0.8 mi WSW 9.2 mph - N/A   Overcast
7:06 AM 30.2 °F 22.6 °F 30.2 °F 100% 30.08 in 0.5 mi SW 8.1 mph - N/A Fog Light Freezing Fog
7:19 AM 30.2 °F 21.9 °F 30.2 °F 100% 30.08 in 0.2 mi SW 9.2 mph - N/A Fog Light Freezing Fog
7:32 AM 30.2 °F 22.6 °F 30.2 °F 100% 30.08 in 0.5 mi SW 8.1 mph - N/A Fog Light Freezing Fog
7:56 AM 31.1 °F 23.7 °F 30.0 °F 96% 30.09 in 0.8 mi SW 8.1 mph - N/A   Overcast
8:05 AM 30.2 °F 22.6 °F 30.2 °F 100% 30.08 in 1.2 mi SW 8.1 mph - N/A   Overcast
8:11 AM 30.2 °F 21.9 °F 30.2 °F 100% 30.08 in 2.0 mi WSW 9.2 mph - N/A   Overcast
8:20 AM 30.2 °F 22.6 °F 30.2 °F 100% 30.08 in 4.0 mi SW 8.1 mph - N/A   Overcast
8:28 AM 30.2 °F 22.6 °F 30.2 °F 100% 30.08 in 1.8 mi SW 8.1 mph - N/A   Overcast
8:43 AM 30.2 °F 21.9 °F 30.2 °F 100% 30.08 in 3.0 mi SW 9.2 mph - N/A   Overcast
8:56 AM 31.1 °F 23.1 °F 30.0 °F 96% 30.10 in 3.0 mi SW 9.2 mph - N/A   Overcast
9:26 AM 30.2 °F 21.9 °F 30.2 °F 100% 30.08 in 1.8 mi SW 9.2 mph - N/A   Overcast
9:30 AM 30.2 °F 22.6 °F 30.2 °F 100% 30.09 in 1.0 mi WSW 8.1 mph - N/A   Overcast
9:36 AM 30.2 °F 21.9 °F 30.2 °F 100% 30.09 in 0.5 mi SW 9.2 mph - N/A Fog Light Freezing Fog
9:56 AM 30.2 °F 21.9 °F 30.2 °F 100% 30.09 in 0.5 mi SW 9.2 mph - N/A Fog Light Freezing Fog
10:04 AM 30.2 °F 21.9 °F 30.2 °F 100% 30.08 in 0.2 mi SW 9.2 mph - N/A Fog Light Freezing Fog
10:19 AM 30.2 °F 21.9 °F 30.2 °F 100% 30.09 in 0.2 mi SW 9.2 mph - N/A Fog Light Freezing Fog
10:56 AM 31.1 °F 23.1 °F 31.1 °F 100% 30.10 in - WSW 9.2 mph - 0.00 in   Overcast
11:56 AM 31.1 °F 23.7 °F 31.1 °F 100% 30.10 in - WSW 8.1 mph - 0.00 in   Overcast
12:11 PM 30.2 °F 21.9 °F 30.2 °F 100% 30.09 in 0.2 mi West 9.2 mph - N/A Fog Light Freezing Fog
12:21 PM 32.0 °F 23.6 °F 30.2 °F 93% 30.09 in 0.8 mi West 10.4 mph - N/A   Overcast
12:26 PM 32.0 °F 24.2 °F 30.2 °F 93% 30.09 in 1.2 mi West 9.2 mph - N/A   Overcast
12:29 PM 32.0 °F 23.6 °F 30.2 °F 93% 30.09 in 2.0 mi West 10.4 mph - 0.00 in   Overcast
12:56 PM 32.0 °F 24.2 °F 30.2 °F 93% 30.08 in 1.8 mi West 9.2 mph - N/A   Overcast
1:00 PM 32.0 °F 24.2 °F 30.2 °F 93% 30.09 in 3.0 mi West 9.2 mph - 0.00 in   Overcast
1:56 PM 32.0 °F 24.8 °F 31.1 °F 96% 30.10 in 5.0 mi West 8.1 mph - 0.00 in   Overcast
2:26 PM 32.0 °F 25.6 °F 30.2 °F 93% 30.09 in 1.8 mi West 6.9 mph - 0.00 in   Overcast
2:35 PM 32.0 °F 25.6 °F 30.2 °F 93% 30.09 in 1.0 mi WSW 6.9 mph - 0.00 in   Overcast
2:56 PM 32.0 °F 26.4 °F 31.1 °F 96% 30.10 in 0.8 mi West 5.8 mph - 0.00 in   Overcast
3:15 PM 32.0 °F 25.6 °F 30.2 °F 93% 30.09 in 0.5 mi West 6.9 mph - 0.00 in Fog Fog
3:29 PM 32.0 °F 25.6 °F 30.2 °F 93% 30.09 in 1.0 mi West 6.9 mph - 0.00 in   Overcast
3:34 PM 32.0 °F 25.6 °F 30.2 °F 93% 30.09 in 1.5 mi West 6.9 mph - 0.00 in   Overcast
3:46 PM 32.0 °F 25.6 °F 30.2 °F 93% 30.09 in 3.0 mi West 6.9 mph - 0.00 in   Overcast
3:56 PM 32.0 °F 24.8 °F 30.2 °F 93% 30.09 in 2.5 mi West 8.1 mph - N/A   Overcast
4:10 PM 32.0 °F 25.6 °F 30.2 °F 93% 30.09 in 6.0 mi West 6.9 mph - N/A   Overcast
4:44 PM 32.0 °F 24.8 °F 30.2 °F 93% 30.09 in 1.8 mi West 8.1 mph - N/A   Overcast
4:56 PM 32.0 °F 24.2 °F 31.1 °F 96% 30.10 in 9.0 mi West 9.2 mph - N/A   Overcast
5:13 PM 32.0 °F 24.8 °F 30.2 °F 93% 30.08 in 1.8 mi West 8.1 mph - N/A   Overcast
5:21 PM 32.0 °F 24.2 °F 30.2 °F 93% 30.08 in 1.0 mi West 9.2 mph - N/A   Overcast
5:28 PM 32.0 °F 24.2 °F 30.2 °F 93% 30.08 in 0.5 mi West 9.2 mph - N/A Fog Fog
5:35 PM 32.0 °F 24.2 °F 30.2 °F 93% 30.08 in 1.0 mi West 9.2 mph - N/A   Overcast
5:40 PM 32.0 °F 24.2 °F 30.2 °F 93% 30.08 in 1.5 mi WSW 9.2 mph - N/A   Overcast
5:46 PM 32.0 °F 24.2 °F 30.2 °F 93% 30.08 in 1.0 mi West 9.2 mph - N/A   Overcast
5:56 PM 32.0 °F 24.8 °F 31.1 °F 96% 30.09 in 0.8 mi WSW 8.1 mph - N/A   Overcast
6:11 PM 32.0 °F 24.2 °F 30.2 °F 93% 30.08 in 1.0 mi WSW 9.2 mph - N/A   Overcast
6:19 PM 32.0 °F 24.2 °F 30.2 °F 93% 30.08 in 1.5 mi West 9.2 mph - N/A   Overcast
6:23 PM 30.2 °F 21.9 °F 30.2 °F 100% 30.08 in 3.0 mi West 9.2 mph - N/A   Overcast
7:56 PM 31.1 °F 23.7 °F 30.0 °F 96% 30.08 in 10.0 mi West 8.1 mph - N/A   Overcast
8:56 PM 31.1 °F 23.7 °F 30.0 °F 96% 30.08 in 10.0 mi WSW 8.1 mph - N/A   Overcast
9:56 PM 30.2 °F 22.6 °F 30.2 °F 100% 30.06 in 1.5 mi West 8.1 mph - N/A Snow Light Snow
10:08 PM 30.2 °F 23.4 °F 30.2 °F 100% 30.06 in 3.0 mi West 6.9 mph - 0.00 in Snow Light Snow
10:26 PM 30.2 °F 22.6 °F 30.2 °F 100% 30.05 in 2.5 mi West 8.1 mph - 0.00 in   Overcast
10:35 PM 30.2 °F 23.4 °F 30.2 °F 100% 30.05 in 3.0 mi West 6.9 mph - 0.00 in   Overcast
10:42 PM 30.2 °F 23.4 °F 30.2 °F 100% 30.05 in 2.0 mi WSW 6.9 mph - 0.00 in   Overcast
10:56 PM 31.1 °F 24.5 °F 30.0 °F 96% 30.06 in 2.0 mi WSW 6.9 mph - 0.00 in   Overcast
11:06 PM 30.2 °F 22.6 °F 30.2 °F 100% 30.05 in 3.0 mi WSW 8.1 mph - N/A   Overcast
11:15 PM 30.2 °F 22.6 °F 30.2 °F 100% 30.05 in 2.0 mi WSW 8.1 mph - N/A   Overcast
11:17 PM 30.2 °F 22.6 °F 30.2 °F 100% 30.05 in 1.2 mi West 8.1 mph - N/A   Overcast
11:19 PM 30.2 °F 22.6 °F 30.2 °F 100% 30.05 in 0.8 mi WSW 8.1 mph - N/A   Overcast
11:24 PM 30.2 °F 22.6 °F 30.2 °F 100% 30.05 in 0.2 mi WSW 8.1 mph - N/A Fog Light Freezing Fog
11:56 PM 31.1 °F 23.1 °F 30.0 °F 96% 30.06 in 0.5 mi West 9.2 mph - N/A Fog Light Freezing Fog